RH
28 27 27 28 28 26 25 26 30 45 97 98 98 76 78 100 90 92 98 98 97 82 72 68 63 63 64 59 58 58 70 77 75 72 64 56 48 51 44 46 35 33 31 33 18
30 28 27 28 28 27 30 36 41 46 50 57 62 96 98 97 88 80 99 91 84 74 76 67 57 63 60 60 59 65 74 71 60 58 62 54 51 46 46 42 37 31 32 22 16
29 30 28 28 29 28 30 34 35 43 46 44 55 99 98 92 81 87 95 74 74 74 72 67 56 58 59 59 62 70 71 67 62 59 56 54 54 49 48 41 30 33 28 18 21
29 32 30 29 30 29 32 35 43 54 48 44 66 100 99 89 86 79 70 66 65 63 66 60 56 57 67 68 62 66 68 64 63 59 55 54 50 50 49 33 31 34 26 18 32
26 30 32 30 31 31 33 38 42 47 45 60 80 97 88 83 86 79 74 70 64 58 60 58 56 61 69 65 62 66 64 59 56 54 50 52 54 48 48 34 36 31 22 18 39
25 28 33 32 30 30 31 38 45 52 72 84 92 93 77 74 84 78 60 58 59 57 51 55 54 56 61 64 59 60 59 58 50 47 42 50 46 49 32 31 29 22 18 18 35
25 28 33 34 28 29 30 38 50 70 87 92 90 85 72 66 74 60 49 39 49 55 48 49 55 51 54 65 59 57 53 50 53 35 32 37 27 41 30 30 27 22 21 20 36
25 27 32 35 26 27 30 41 53 71 76 75 74 66 53 63 57 53 52 43 44 43 40 46 52 50 54 56 50 58 49 43 36 29 31 24 31 24 26 27 23 21 22 22 27
28 26 30 31 30 27 31 42 55 67 74 70 67 60 51 54 47 43 48 44 45 48 48 50 48 57 53 50 44 39 40 35 31 29 29 29 35 27 25 27 26 21 22 23 22
36 29 28 31 32 29 32 43 59 69 75 69 59 44 54 51 37 39 47 47 45 46 47 47 50 62 68 48 33 33 39 38 40 30 35 38 40 31 29 28 26 23 22 24 26
40 35 30 32 34 30 33 48 51 45 65 55 47 49 49 38 42 36 43 46 47 44 47 51 44 38 42 56 38 41 40 43 39 35 39 41 38 31 28 30 28 22 23 33 53
41 46 38 31 39 34 35 46 42 44 45 45 43 40 37 39 43 37 42 45 40 41 43 36 39 42 43 58 52 38 40 39 37 34 33 38 33 29 27 25 31 30 34 51 39
55 53 54 42 45 38 36 38 42 45 44 46 40 36 33 38 42 41 37 37 36 40 40 37 34 36 35 44 39 36 41 39 38 38 35 36 28 29 27 34 42 35 46 43 32
99 95 56 65 41 46 39 40 42 55 74 45 44 38 39 39 43 39 36 33 32 37 42 41 34 34 40 37 36 39 35 36 38 39 41 33 36 31 31 36 42 41 40 33 26
100 100 88 69 58 49 41 45 47 64 50 40 42 42 41 38 40 41 37 34 34 39 32 34 34 34 36 34 33 37 35 38 40 43 47 44 47 33 36 28 36 40 34 28 21
98 100 100 81 68 54 46 52 62 73 55 51 44 45 43 42 42 41 39 36 38 41 42 40 38 36 35 34 32 31 35 40 48 51 57 47 49 30 34 27 30 33 32 25 28
98 98 99 97 69 52 56 65 77 72 41 53 52 49 46 52 49 45 48 49 47 52 46 42 40 34 32 35 32 34 39 63 63 64 59 48 54 34 30 27 26 28 24 31 32
91 92 98 100 86 54 69 70 66 42 55 48 50 51 56 51 48 49 48 51 44 45 69 60 51 33 30 34 38 44 40 67 52 56 46 50 50 32 34 26 24 26 29 32 34
98 91 100 97 98 60 76 86 62 49 51 60 51 59 61 48 51 47 52 52 51 49 56 72 50 41 39 36 33 46 49 44 63 68 68 55 47 35 36 28 28 31 33 35 37
99 98 98 95 99 70 88 77 56 48 57 54 60 56 70 63 56 66 64 51 51 46 49 56 64 46 42 38 42 38 45 57 80 62 60 48 53 35 43 32 30 33 37 38 41
100 99 97 95 96 84 96 82 61 50 50 58 64 60 58 61 68 70 64 53 45 58 56 65 62 54 47 50 54 54 57 70 71 71 64 68 44 39 36 35 32 36 38 43 46
100 100 99 100 97 98 96 76 55 62 56 56 55 56 60 65 73 74 65 61 44 52 51 58 77 77 60 59 54 51 71 72 76 69 91 78 64 39 34 37 40 42 43 46 42
100 99 100 99 98 95 88 93 63 65 64 66 61 56 56 67 66 72 66 54 48 54 65 68 80 83 68 61 59 72 69 78 82 80 90 74 51 38 38 41 40 42 40 44 43
100 100 100 100 97 91 95 89 73 60 66 64 69 62 63 66 66 78 72 60 53 49 57 51 80 72 71 64 79 74 88 74 75 88 76 65 51 42 40 40 40 42 48 49 37
100 99 88 98 97 94 95 83 80 80 65 66 74 69 68 89 79 74 70 66 60 56 70 69 82 84 73 61 68 69 73 86 86 66 74 49 57 46 44 46 47 51 51 44 36
97 100 97 92 86 97 94 93 82 79 79 78 77 73 72 82 70 84 78 74 74 77 86 91 92 91 90 76 84 88 78 76 76 68 68 62 67 46 47 51 54 48 47 44 37
100 97 74 96 99 98 91 78 80 76 72 66 67 78 77 68 56 60 56 60 66 82 90 91 95 97 93 78 72 78 67 64 79 78 77 87 62 54 57 56 50 46 41 38 37
Wind_Speed
14 16 18 17 16 16 15 14 11 9 4 5 3 4 10 13 13 11 8 5 5 5 3 3 2 6 8 6 5 4 3 3 5 6 4 2 2 3 2 2 0 3 4 4 8
15 16 17 18 17 16 15 12 10 7 6 3 4 9 12 14 12 7 7 3 4 0 4 4 3 9 4 3 2 3 2 6 3 4 4 3 3 4 3 1 3 3 2 3 6
15 16 18 19 18 18 15 13 10 7 5 1 6 12 13 10 4 4 5 4 5 5 2 3 5 5 4 3 2 2 3 5 4 5 2 3 3 6 5 3 6 5 1 3 2
15 17 18 19 18 17 15 14 11 9 5 4 10 14 11 2 2 3 4 3 2 1 1 3 4 4 3 3 2 3 3 4 6 5 2 3 4 4 10 4 7 1 1 4 2
15 15 16 18 17 16 14 12 10 6 3 7 12 13 3 2 4 2 1 2 2 4 3 4 5 5 5 4 3 2 3 2 4 5 6 4 5 4 10 9 7 3 2 3 1
14 15 15 17 17 15 12 10 7 5 7 9 11 7 1 2 6 2 2 1 2 3 5 4 4 7 7 3 2 2 1 3 1 2 2 2 1 2 2 8 8 3 2 3 3
15 15 15 15 15 14 11 8 3 5 6 5 4 2 1 4 4 3 4 6 3 3 4 6 7 3 6 3 3 1 0 1 2 1 2 0 3 6 8 7 3 4 6 6 6
16 16 15 15 15 13 10 5 1 4 3 2 3 3 2 6 4 3 2 7 7 7 7 7 7 7 3 6 4 2 3 2 0 2 2 2 4 3 5 3 6 16 15 11 10
16 17 16 15 14 12 9 3 3 4 3 2 4 3 2 5 3 4 4 4 6 6 7 6 4 4 3 3 2 5 2 1 4 1 1 2 5 4 4 7 19 21 18 14 11
17 16 17 15 14 10 6 3 4 5 5 5 4 2 5 4 4 5 5 3 3 4 4 2 4 3 2 2 1 1 1 1 3 2 3 6 12 15 18 12 18 18 11 7 10
18 17 17 16 14 9 4 3 3 3 8 4 3 2 7 7 6 4 5 5 3 3 2 3 3 1 3 3 3 4 2 1 3 3 3 6 10 14 19 11 10 7 2 7 13
20 18 17 16 14 7 4 5 6 3 2 5 4 4 7 7 3 5 3 2 2 2 1 3 1 3 5 4 3 2 1 3 3 1 2 7 18 8 4 2 2 3 6 13 12
19 19 16 15 13 8 5 6 6 6 1 4 6 5 5 6 2 6 4 3 3 2 2 3 1 3 1 2 2 2 3 2 3 5 1 7 5 2 2 3 6 5 9 11 8
15 17 16 12 11 6 6 3 5 5 4 4 5 5 7 5 1 4 4 2 2 3 4 2 1 2 2 2 4 2 2 2 1 3 3 5 5 3 0 2 2 5 8 8 4
15 16 15 9 9 8 5 3 7 3 3 3 4 7 7 4 9 3 5 3 5 4 3 2 3 2 2 2 4 2 2 1 1 2 2 1 0 4 2 3 3 4 6 5 2
15 17 15 11 9 7 4 6 10 5 6 5 5 6 4 2 3 6 3 3 4 3 3 2 1 2 3 2 1 2 3 4 3 2 1 2 2 3 4 5 4 4 9 6 7
17 17 16 12 6 6 8 9 4 4 2 5 5 5 4 4 3 4 4 3 5 4 1 1 1 1 2 2 1 3 4 3 3 2 2 1 3 7 3 4 7 8 9 2 10
18 17 17 13 8 8 12 3 3 4 6 2 4 4 5 5 2 3 3 3 2 4 3 4 2 4 1 1 3 2 3 4 4 2 3 2 6 2 3 5 13 12 6 9 16
18 17 20 15 10 12 7 2 8 7 7 10 3 4 4 2 4 3 6 4 6 6 5 4 2 1 3 2 1 2 1 1 5 2 1 2 6 8 6 4 9 7 3 16 22
21 17 22 17 14 15 3 6 5 4 7 3 9 5 7 6 4 4 6 3 5 4 2 5 3 1 0 4 6 1 6 3 3 1 4 3 6 5 3 9 8 5 9 16 25
24 10 10 20 18 10 4 7 6 6 6 7 8 5 4 7 7 4 4 0 2 3 6 4 3 2 0 4 6 3 2 5 4 2 3 3 6 5 6 9 9 6 12 17 27
22 4 18 28 6 5 4 6 5 5 3 3 4 4 7 6 5 3 7 3 9 9 6 2 4 3 2 1 2 1 5 5 4 4 1 0 8 3 5 8 11 6 11 22 33
11 8 29 35 6 8 4 4 6 6 5 6 5 3 3 7 3 4 4 1 11 6 7 7 1 2 4 3 4 3 4 4 4 3 7 4 5 1 3 5 12 15 23 32 23
13 4 8 21 7 6 6 5 6 7 4 5 5 5 4 3 2 7 5 2 9 5 6 8 3 5 5 5 4 2 3 5 5 3 5 10 8 8 7 9 13 20 27 24 17
16 6 13 6 11 9 3 5 8 7 3 6 1 5 8 4 3 6 4 3 2 3 4 4 4 3 4 5 4 6 9 8 11 12 7 12 10 20 12 10 16 23 22 16 18
17 6 9 7 12 17 11 6 10 5 9 6 5 10 7 7 8 9 8 5 6 3 4 2 2 2 5 2 6 11 17 15 13 16 17 23 26 23 25 16 12 21 18 16 21
21 23 18 14 6 9 11 17 8 8 6 4 10 7 7 6 4 7 6 13 11 9 5 6 5 3 4 4 6 8 11 15 7 7 7 8 11 3 3 4 10 19 17 21 26
Wind_Direction
353 356 355 354 354 356 357 355 350 346 336 352 342 87 109 104 106 103 63 26 333 253 214 185 113 157 149 118 122 127 90 175 183 162 146 156 144 196 268 201 254 105 87 13 355
354 355 354 353 352 353 357 3 4 356 342 340 91 125 126 118 111 113 65 37 27 238 187 179 142 156 117 112 87 93 158 189 151 141 144 176 181 203 157 278 181 149 69 5 1
350 351 354 355 352 353 354 357 356 357 16 91 146 140 136 133 116 87 57 61 71 84 130 160 148 145 97 115 55 121 184 158 156 153 156 176 218 179 178 194 183 183 329 350 41
349 351 352 353 351 350 351 353 355 359 15 95 150 148 146 354 156 71 50 55 24 328 166 151 158 115 93 127 94 108 127 148 166 175 176 212 172 206 204 194 161 213 280 343 160
342 346 349 350 349 349 348 350 355 15 79 122 147 146 147 93 128 115 354 332 357 33 150 155 148 131 136 130 110 118 170 209 182 258 248 223 219 228 230 217 233 220 294 329 220
335 340 347 349 347 345 343 347 1 65 106 127 147 162 193 76 131 120 358 335 92 89 91 127 131 124 113 99 117 137 189 254 269 167 218 227 200 188 136 151 170 185 329 309 280
329 334 340 343 344 340 340 338 6 106 118 138 171 198 187 139 142 125 49 51 94 102 94 109 130 149 125 110 108 97 352 306 208 153 145 262 254 230 231 209 210 258 324 280 256
322 327 333 335 340 335 331 322 223 156 155 181 193 195 152 150 143 140 106 68 84 91 91 102 115 103 71 119 43 61 59 122 145 335 188 89 262 281 167 213 277 307 295 263 246
314 320 325 329 334 332 325 287 208 200 209 218 226 216 168 169 166 153 140 114 103 89 90 109 105 85 87 83 42 20 147 29 325 336 316 148 273 257 237 291 297 299 292 255 246
305 312 318 324 329 326 320 241 217 227 225 236 221 188 181 191 153 138 163 136 120 124 100 75 67 76 52 82 230 173 98 301 261 339 356 280 267 276 286 274 286 291 300 244 208
298 304 311 318 323 317 295 203 228 227 211 223 208 174 152 157 154 150 132 139 122 108 81 33 73 175 208 170 123 117 101 281 258 295 274 268 281 289 293 270 267 273 306 151 159
293 298 304 311 318 304 269 220 239 213 240 209 182 165 157 169 155 163 138 160 113 118 93 32 166 173 106 131 119 95 108 276 296 293 300 315 298 302 342 47 304 266 163 153 160
283 291 299 308 315 293 273 253 256 187 177 204 193 179 162 176 172 170 159 130 111 108 106 136 104 108 113 131 143 202 193 226 253 333 63 310 287 352 5 37 40 94 144 156 161
277 281 290 305 305 277 276 262 192 173 65 207 206 199 169 155 124 159 152 135 68 140 149 203 294 146 118 182 154 268 186 184 278 2 286 4 287 290 330 63 73 111 144 149 169
271 273 284 288 281 283 276 229 164 121 2 167 161 164 166 166 144 181 168 142 156 159 126 188 141 132 159 202 181 203 60 85 75 150 22 4 221 272 311 222 195 195 168 165 302
268 263 272 277 276 262 231 163 137 52 259 186 142 172 131 166 160 143 173 139 120 106 44 223 302 173 181 81 106 116 101 60 67 103 359 245 208 252 193 194 161 175 169 99 37
274 253 256 260 255 224 173 160 49 148 17 195 189 169 173 162 172 180 172 178 169 114 191 338 203 275 153 120 64 80 52 325 343 6 220 331 242 263 226 189 169 165 147 61 335
262 250 249 248 245 196 168 57 138 206 195 130 127 102 175 155 180 151 138 244 247 100 114 150 297 162 45 153 152 92 141 151 255 291 303 345 240 259 239 190 155 150 155 339 344
242 240 236 237 233 190 174 111 211 199 164 144 64 142 221 192 145 157 195 216 191 172 158 129 241 8 69 55 91 162 80 135 102 76 329 254 285 274 222 176 184 175 294 344 347
224 225 239 230 219 186 118 236 235 179 127 129 170 162 177 186 161 174 189 196 179 184 118 186 75 360 81 118 42 152 140 90 24 33 275 281 272 248 184 199 202 240 298 327 341
205 196 199 201 187 186 196 224 230 215 154 152 181 146 179 168 167 201 208 263 162 96 79 128 91 248 330 204 171 144 152 68 111 150 210 298 260 206 220 201 194 243 305 320 332
195 170 172 175 158 202 203 195 184 169 175 123 118 117 159 157 148 208 205 233 169 150 145 140 131 176 181 39 4 132 175 149 138 224 164 92 267 263 219 170 164 238 309 328 333
198 143 167 173 192 210 235 261 206 154 190 163 151 154 155 160 133 161 188 168 162 152 162 183 78 37 351 4 359 217 183 124 107 94 194 169 255 163 227 231 247 300 318 319 318
176 152 155 196 215 160 183 226 203 205 164 145 132 106 113 121 45 161 163 191 180 159 144 132 128 180 196 202 140 189 215 194 144 175 185 228 262 248 233 253 284 297 303 314 308
181 218 171 186 209 180 154 197 162 175 198 170 102 206 159 123 111 165 157 129 103 167 100 113 189 181 230 185 187 218 218 193 199 215 230 266 265 272 280 287 289 289 298 301 298
177 180 165 133 148 191 193 227 192 164 153 206 199 177 179 152 183 185 139 184 182 65 127 345 186 125 297 264 222 253 250 230 218 242 254 266 276 280 280 280 282 292 300 287 300
208 206 182 161 150 174 213 212 206 142 223 196 171 134 169 196 140 142 143 159 157 144 149 146 132 118 258 351 312 266 252 213 186 195 191 211 241 292 265 248 273 298 295 295 300